Cutler
DateTemperatureDew Point
09/03 - 08:00 PM67.8°57.9°
09/03 - 07:45 PM69.2°58.1°
09/03 - 07:30 PM71.2°59.2°
09/03 - 07:15 PM73.7°60.6°
09/03 - 07:00 PM76.1°61.6°
09/03 - 06:45 PM78.5°61.5°
09/03 - 06:30 PM80.5°59.9°
09/03 - 06:15 PM82.1°58.4°
09/03 - 06:00 PM83.1°55.7°
09/03 - 05:45 PM84.5°56.4°
09/03 - 05:30 PM85.5°56.1°
09/03 - 05:15 PM86.1°55.5°
09/03 - 05:00 PM86.6°56.2°
09/03 - 04:45 PM86.9°56.0°
09/03 - 04:30 PM87.1°56.6°
09/03 - 04:15 PM86.7°56.9°
09/03 - 04:00 PM86.8°56.2°
09/03 - 03:45 PM87.3°55.8°
09/03 - 03:30 PM87.1°56.5°
09/03 - 03:15 PM86.8°56.9°
09/03 - 03:00 PM86.3°57.2°
09/03 - 02:45 PM85.6°57.1°
09/03 - 02:30 PM84.9°57.3°
09/03 - 02:15 PM83.9°57.3°
09/03 - 02:00 PM83.5°57.2°
09/03 - 01:45 PM83.2°58.1°
09/03 - 01:30 PM82.5°58.3°
09/03 - 01:15 PM81.7°57.5°
09/03 - 01:00 PM80.9°58.5°
09/03 - 12:45 PM80.2°58.6°
09/03 - 12:30 PM78.8°58.1°
09/03 - 12:15 PM78.4°58.2°
09/03 - 12:00 PM78.5°58.6°
09/03 - 11:45 AM77.4°59.0°
09/03 - 11:30 AM76.4°59.2°
09/03 - 11:15 AM76.0°58.8°
09/03 - 11:00 AM75.1°58.9°
09/03 - 10:45 AM73.5°58.4°
09/03 - 10:30 AM72.4°58.1°
09/03 - 10:15 AM71.5°58.8°
09/03 - 10:00 AM70.3°58.0°
09/03 - 09:45 AM69.6°57.8°
09/03 - 09:30 AM68.7°57.8°
09/03 - 09:15 AM67.2°57.5°
09/03 - 09:00 AM65.7°56.9°
09/03 - 08:45 AM63.7°56.8°
09/03 - 08:30 AM61.0°56.5°
09/03 - 08:15 AM58.7°56.6°
09/03 - 08:00 AM57.5°56.6°
09/03 - 07:45 AM55.7°54.7°
09/03 - 07:30 AM54.4°53.3°
09/03 - 07:15 AM53.2°51.8°
09/03 - 07:00 AM51.9°50.0°
09/03 - 06:45 AM51.3°49.3°
09/03 - 06:30 AM51.7°49.6°
09/03 - 06:15 AM51.6°49.3°
09/03 - 06:00 AM52.1°49.7°
09/03 - 05:45 AM52.3°50.0°
09/03 - 05:30 AM52.5°50.2°
09/03 - 05:15 AM52.8°50.4°
09/03 - 05:00 AM53.1°50.9°
09/03 - 04:45 AM53.4°51.2°
09/03 - 04:30 AM53.7°51.5°
09/03 - 04:15 AM53.8°51.6°
09/03 - 04:00 AM54.1°51.8°
09/03 - 03:45 AM54.3°52.1°
09/03 - 03:30 AM54.4°52.2°
09/03 - 03:15 AM54.4°52.2°
09/03 - 03:00 AM54.5°52.3°
09/03 - 02:45 AM54.4°51.6°
09/03 - 02:30 AM54.6°51.5°
09/03 - 02:15 AM54.7°51.6°
09/03 - 02:00 AM55.5°52.1°
09/03 - 01:45 AM56.1°52.4°
09/03 - 01:30 AM56.2°52.4°
09/03 - 01:15 AM56.6°52.5°
09/03 - 01:00 AM56.7°52.9°
09/03 - 12:45 AM56.6°52.9°
09/03 - 12:30 AM56.5°52.5°
09/03 - 12:15 AM56.9°52.7°
09/03 - 12:00 AM57.1°52.7°
09/02 - 11:45 PM57.1°52.9°
09/02 - 11:30 PM57.0°53.1°
09/02 - 11:15 PM57.2°53.5°
09/02 - 11:00 PM57.3°53.3°
09/02 - 10:45 PM57.9°53.7°
09/02 - 10:30 PM58.6°54.0°
09/02 - 10:15 PM58.9°53.7°
09/02 - 10:00 PM59.9°54.2°
09/02 - 09:45 PM60.4°54.8°
09/02 - 09:30 PM60.9°55.4°
09/02 - 09:15 PM61.3°55.4°
09/02 - 09:00 PM61.9°55.5°
09/02 - 08:45 PM62.9°56.1°
09/02 - 08:30 PM63.6°56.4°
09/02 - 08:15 PM64.6°57.0°
09/02 - 08:00 PM66.1°57.4°
09/02 - 07:45 PM67.9°58.1°
09/02 - 07:30 PM70.2°58.6°
09/02 - 07:15 PM72.7°59.2°
09/02 - 07:00 PM75.3°58.7°
09/02 - 06:45 PM77.6°57.1°
09/02 - 06:30 PM79.1°54.9°
09/02 - 06:15 PM80.7°53.7°
09/02 - 06:00 PM82.1°53.0°
09/02 - 05:45 PM83.1°52.8°
09/02 - 05:30 PM84.2°53.1°
09/02 - 05:15 PM84.7°54.0°
09/02 - 05:00 PM85.2°54.4°
09/02 - 04:45 PM85.4°54.7°
09/02 - 04:30 PM85.7°54.9°
09/02 - 04:15 PM85.6°54.6°
09/02 - 04:00 PM85.1°54.3°
09/02 - 03:45 PM84.8°55.0°
09/02 - 03:30 PM84.6°55.5°
09/02 - 03:15 PM84.0°55.3°
09/02 - 03:00 PM83.5°56.3°
09/02 - 02:45 PM83.1°56.3°
09/02 - 02:30 PM82.4°56.4°
09/02 - 02:15 PM81.6°55.5°
09/02 - 02:00 PM81.0°56.3°
09/02 - 01:45 PM80.0°56.0°
09/02 - 01:30 PM79.2°55.5°
09/02 - 01:15 PM78.6°55.4°
09/02 - 01:00 PM77.8°54.8°
09/02 - 12:45 PM77.6°55.4°
09/02 - 12:30 PM77.1°55.3°
09/02 - 12:15 PM76.2°55.2°
09/02 - 12:00 PM75.8°55.2°
09/02 - 11:45 AM74.9°54.8°
09/02 - 11:30 AM74.0°54.5°
09/02 - 11:15 AM73.8°54.8°
09/02 - 11:00 AM73.0°54.9°
09/02 - 10:45 AM71.8°54.6°
09/02 - 10:30 AM70.9°54.9°
09/02 - 10:15 AM69.6°54.2°
09/02 - 10:00 AM69.0°54.3°
09/02 - 09:45 AM67.6°54.7°
09/02 - 09:30 AM66.6°54.7°
09/02 - 09:15 AM65.3°54.8°
09/02 - 09:00 AM63.5°54.4°
09/02 - 08:45 AM63.0°54.3°
09/02 - 08:30 AM61.9°54.2°
09/02 - 08:15 AM60.3°54.1°
09/02 - 08:00 AM58.7°53.6°
09/02 - 07:45 AM56.7°53.6°
09/02 - 07:30 AM54.6°53.0°
09/02 - 07:15 AM53.2°51.5°
09/02 - 07:00 AM52.2°50.0°
09/02 - 06:45 AM51.9°49.1°
09/02 - 06:30 AM52.2°49.0°
09/02 - 06:15 AM52.6°49.4°
09/02 - 06:00 AM52.8°50.0°
09/02 - 05:45 AM52.5°50.2°
09/02 - 05:30 AM51.2°48.9°
09/02 - 05:15 AM50.7°47.3°
09/02 - 05:00 AM51.0°47.1°
09/02 - 04:45 AM51.4°47.5°
09/02 - 04:30 AM51.8°48.0°
09/02 - 04:15 AM52.2°48.5°
09/02 - 04:00 AM52.3°48.9°
09/02 - 03:45 AM52.2°48.7°
09/02 - 03:30 AM52.4°47.9°
09/02 - 03:15 AM53.2°48.0°
09/02 - 03:00 AM53.9°48.2°
09/02 - 02:45 AM54.3°48.2°
09/02 - 02:30 AM55.6°48.9°
09/02 - 02:15 AM56.6°49.5°
09/02 - 02:00 AM57.9°50.2°
09/02 - 01:45 AM58.7°50.0°
09/02 - 01:30 AM59.6°49.9°
09/02 - 01:15 AM60.6°50.0°
09/02 - 01:00 AM61.5°50.1°
09/02 - 12:45 AM62.7°50.5°
09/02 - 12:30 AM63.5°50.2°
09/02 - 12:15 AM64.3°50.1°
09/02 - 12:00 AM65.1°50.0°
09/01 - 11:45 PM65.5°49.7°
09/01 - 11:30 PM65.8°49.2°
09/01 - 11:15 PM65.9°48.7°
09/01 - 11:00 PM66.5°48.8°
09/01 - 10:45 PM66.9°48.8°
09/01 - 10:30 PM66.1°48.7°
09/01 - 10:15 PM62.8°49.4°
09/01 - 10:00 PM60.3°50.6°
09/01 - 09:45 PM59.6°51.0°
09/01 - 09:30 PM61.0°51.9°
09/01 - 09:15 PM61.9°52.1°
09/01 - 09:00 PM62.3°52.8°
09/01 - 08:45 PM62.8°53.1°
09/01 - 08:30 PM63.4°53.3°